ZHANGZHENG-1 (CSES) (43194 NORAD) Tracking and Keplerian Element Data

This shows tracking and keplerian element data for the satellite.

Feedback or suggestion? Click here.




ElementValue
Catalog43194
NameZHANGZHENG-1 (CSES)
Epoch Orbit2943
Epoch Day226.87656728
Epoch Year2018
RAAN354.0567
Inclination97.3574
Eccentricity0.0016328
Argument of Perigee311.7597
Mean Anonmoly48.2243
Mean Motion15.20984503
Decay Rate6.09E-06
L11 43194U 18015C 18226.87656728 .00000609 00000-0 30519-4 0 9991
L22 43194 97.3574 354.0567 0016328 311.7597 48.2243 15.20984503 29439

Live tracking and technical data element details for ZHANGZHENG-1 (CSES) (NORAD 43194). ZHANGZHENG-1 (CSES) can be tracked NOW for your location showing map with azimuth and elevation plus other details from your city location.

Track the satellite on the map from your city or location and see movement details for azimuth, elevation, latitude, longitude, range, height, and movement on the map or in text.







IsCatalogInMostPopularTable: catalog: 43194, numindb: 77
Update: records affected: 1



GetName: 43194 ZHANGZHENG-1 (CSES)

Hit Count: updated at: Wed, 15 Aug 2018 18:57:25 GMT